Tracking 30703 objects as of 12-Jun-2025
HD Live streaming from Space Station
objects crossing your sky now

H-2A R/B

Track H-2A R/B now!
10-day predictions


NORAD ID: 43682
Int'l Code: 2018-084L
Perigee: 459.6 km
Apogee: 503.3 km
Inclination: 98.9 °
Period: 94.1 minutes
Semi major axis: 6852 km
RCS: Unknown
Launch date: October 29, 2018
Source: Japan (JPN)
Launch site: TANEGASHIMA SPACE CENTER (TNSTA)

Note: This is a ROCKET BODY
Your satellite tracking list
Your tracking list is empty




NASA's NSSDC Master Catalog

Two Line Element Set (TLE):
1 43682U 18084L   25163.38795934  .00012645  00000-0  42524-3 0  9997
2 43682  98.8758 320.7672 0031848 232.1542 127.6811 15.30509571364308
Source of the keplerian elements: AFSPC